Svartfoss — V2PR3 — position and weather

sailwx.info

Track history (hours):
 
Tides and Currents Weather Stations Pressure Air Temp Water Temp Dewpoint Dewpoint Depression Visibility Wind Speed Wind Dir Waves Ship Positions

Svartfoss

Last reported at 2014-Oct-24 07:04 UTC. Time now 2014-Oct-24 10:23 UTC.
Position N 70°40' E 023°40'.

Length 80 m; draft 5.6 m.

Type: Cargo ship. MMSI: 304882000.

Date/timePositionNaut miles runAvg speedWind from/ knotsBaromVisibWave heightAir tempDewpointWater temp
2014-Oct-24 07:04N 70°40' E 023°40'0 0.0
2014-Oct-23 11:10N 70°40' E 023°40'0 0.0
2014-Oct-23 10:31N 70°40' E 023°40'0 0.0
2014-Oct-23 09:31N 70°40' E 023°40'0 0.0
2014-Oct-23 08:31N 70°40' E 023°40'0 0.0
2014-Oct-23 02:16N 70°40' E 023°40'0 0.0
2014-Oct-22 16:32N 70°40' E 023°40'0 0.0
2014-Oct-22 15:26N 70°40' E 023°40'0 0.0
2014-Oct-22 14:29N 70°40' E 023°40'0 0.0
2014-Oct-22 13:19N 70°40' E 023°40'0 0.0
2014-Oct-22 12:27N 70°40' E 023°40'0 0.0
2014-Oct-22 11:26N 70°40' E 023°40'0 0.0
2014-Oct-22 10:26N 70°40' E 023°40'0 0.0
2014-Oct-22 09:31N 70°40' E 023°40'0 0.0
2014-Oct-22 08:27N 70°40' E 023°40'0 0.0
2014-Oct-22 07:32N 70°40' E 023°40'2 2.0
2014-Oct-22 06:33N 70°38' E 023°40'0 0.0
2014-Oct-22 05:30N 70°38' E 023°40'0 0.0
2014-Oct-22 03:29N 70°38' E 023°40'0 0.0
2014-Oct-22 02:31N 70°38' E 023°40'0 0.0
2014-Oct-22 01:33N 70°38' E 023°40'0 0.0
2014-Oct-22 00:31N 70°38' E 023°40'0 0.1
2014-Oct-21 23:29N 70°38' E 023°40'0 0.0
2014-Oct-21 22:31N 70°38' E 023°40'5 5.0
2014-Oct-21 21:28N 70°38' E 023°24'107 9.0
2014-Oct-21 09:33N 69°40' E 019°00'1 1.1
2014-Oct-21 08:33N 69°39' E 018°58'0 0.0
2014-Oct-21 07:33N 69°39' E 018°58'0 0.0
2014-Oct-21 06:33N 69°39' E 018°58'0 0.0
2014-Oct-21 05:33N 69°39' E 018°58'0 0.0
2014-Oct-21 04:33N 69°39' E 018°58'1 1.2
2014-Oct-21 03:33N 69°38' E 018°57'227 8.3
2014-Oct-20 00:08N 66°33' E 013°04'711.8
2014-Oct-19 23:32N 66°26' E 012°60'7511.9
2014-Oct-19 17:15N 65°16' E 011°57'1114.6
2014-Oct-19 16:31N 65°06' E 011°48'1313.8
2014-Oct-19 15:34N 64°56' E 011°27'7 6.9
2014-Oct-19 14:33N 64°52' E 011°14'0 0.0
2014-Oct-19 13:33N 64°52' E 011°14'7 7.0
2014-Oct-19 12:33N 64°46' E 011°03'7512.6
2014-Oct-19 06:33N 63°44' E 009°25'281 6.8
2014-Oct-17 13:27N 59°30' E 005°13'1313.6
2014-Oct-17 12:31N 59°18' E 005°20'1313.8
2014-Oct-17 11:34N 59°06' E 005°32'1111.5
2014-Oct-17 10:33N 58°58' E 005°48'7 6.8
2014-Oct-17 09:33N 58°51' E 005°45'0 0.0
2014-Oct-17 08:33N 58°51' E 005°45'0 0.0
2014-Oct-17 07:33N 58°51' E 005°45'0 0.0
2014-Oct-17 06:33N 58°51' E 005°45'0 0.0
2014-Oct-17 05:33N 58°51' E 005°45'0 0.0
2014-Oct-17 04:33N 58°51' E 005°45'0 0.1
2014-Oct-17 03:33N 58°51' E 005°45'1010.2
2014-Oct-17 02:34N 59°02' E 005°43'1010.4
2014-Oct-17 01:34N 58°53' E 005°32'33413.2
2014-Oct-16 00:18N 54°00' E 000°40'1114.3
2014-Oct-15 23:33N 53°50' E 000°32'1414.1
2014-Oct-15 22:33N 53°38' E 000°22'1110.9
2014-Oct-15 21:34N 53°35' E 000°04'5 5.2
2014-Oct-15 20:33N 53°35' W 000°04'0 0.0
2014-Oct-15 19:31N 53°35' W 000°04'0 0.0
2014-Oct-15 18:31N 53°35' W 000°04'0 0.0
2014-Oct-15 17:28N 53°35' W 000°04'0 0.0
2014-Oct-15 16:31N 53°35' W 000°04'0 0.0
2014-Oct-15 15:31N 53°35' W 000°04'0 0.0
2014-Oct-15 14:31N 53°35' W 000°04'0 0.0
2014-Oct-15 13:31N 53°35' W 000°04'0 0.0
2014-Oct-15 12:31N 53°35' W 000°04'0 0.0
2014-Oct-15 11:31N 53°35' W 000°04'0 0.0
2014-Oct-15 10:28N 53°35' W 000°04'0 0.0
2014-Oct-15 09:31N 53°35' W 000°04'0 0.0
2014-Oct-15 08:31N 53°35' W 000°04'0 0.0
2014-Oct-15 07:31N 53°35' W 000°04'0 0.0
2014-Oct-15 06:28N 53°35' W 000°04'0 0.0
2014-Oct-15 05:31N 53°35' W 000°04'0 0.0
2014-Oct-15 04:31N 53°35' W 000°04'0 0.0
2014-Oct-15 03:31N 53°35' W 000°04'0 0.0
2014-Oct-15 02:31N 53°35' W 000°04'0 0.0
2014-Oct-15 01:31N 53°35' W 000°04'0 0.0
2014-Oct-15 00:31N 53°35' W 000°04'0 0.0
2014-Oct-14 23:31N 53°35' W 000°04'0 0.0
2014-Oct-14 22:31N 53°35' W 000°04'0 0.0
2014-Oct-14 21:31N 53°35' W 000°04'0 0.0
2014-Oct-14 20:33N 53°35' W 000°04'2 2.3
2014-Oct-14 19:33N 53°35' W 000°01'1111.1
2014-Oct-14 18:33N 53°33' E 000°18'8 7.6
2014-Oct-14 17:33N 53°31' E 000°30'6 5.6
2014-Oct-14 16:33N 53°28' E 000°38'4013.0
2014-Oct-14 13:30N 53°10' E 001°37'1612.8
2014-Oct-14 12:16N 53°03' E 002°01'  
Track history (hours):
 
Tides and Currents Weather Stations Pressure Air Temp Water Temp Dewpoint Dewpoint Depression Visibility Wind Speed Wind Dir Waves Ship Positions

Svartfoss

Last reported at 2014-Oct-24 07:04 UTC. Time now 2014-Oct-24 10:23 UTC.
Position N 70°40' E 023°40'.

Length 80 m; draft 5.6 m.

Type: Cargo ship. MMSI: 304882000.

Date/timePositionNaut miles runAvg speedWind from/ knotsBaromVisibWave heightAir tempDewpointWater temp
2014-Oct-24 07:04N 70°40' E 023°40'0 0.0
2014-Oct-23 11:10N 70°40' E 023°40'0 0.0
2014-Oct-23 10:31N 70°40' E 023°40'0 0.0
2014-Oct-23 09:31N 70°40' E 023°40'0 0.0
2014-Oct-23 08:31N 70°40' E 023°40'0 0.0
2014-Oct-23 02:16N 70°40' E 023°40'0 0.0
2014-Oct-22 16:32N 70°40' E 023°40'0 0.0
2014-Oct-22 15:26N 70°40' E 023°40'0 0.0
2014-Oct-22 14:29N 70°40' E 023°40'0 0.0
2014-Oct-22 13:19N 70°40' E 023°40'0 0.0
2014-Oct-22 12:27N 70°40' E 023°40'0 0.0
2014-Oct-22 11:26N 70°40' E 023°40'0 0.0
2014-Oct-22 10:26N 70°40' E 023°40'0 0.0
2014-Oct-22 09:31N 70°40' E 023°40'0 0.0
2014-Oct-22 08:27N 70°40' E 023°40'0 0.0
2014-Oct-22 07:32N 70°40' E 023°40'2 2.0
2014-Oct-22 06:33N 70°38' E 023°40'0 0.0
2014-Oct-22 05:30N 70°38' E 023°40'0 0.0
2014-Oct-22 03:29N 70°38' E 023°40'0 0.0
2014-Oct-22 02:31N 70°38' E 023°40'0 0.0
2014-Oct-22 01:33N 70°38' E 023°40'0 0.0
2014-Oct-22 00:31N 70°38' E 023°40'0 0.1
2014-Oct-21 23:29N 70°38' E 023°40'0 0.0
2014-Oct-21 22:31N 70°38' E 023°40'5 5.0
2014-Oct-21 21:28N 70°38' E 023°24'107 9.0
2014-Oct-21 09:33N 69°40' E 019°00'1 1.1
2014-Oct-21 08:33N 69°39' E 018°58'0 0.0
2014-Oct-21 07:33N 69°39' E 018°58'0 0.0
2014-Oct-21 06:33N 69°39' E 018°58'0 0.0
2014-Oct-21 05:33N 69°39' E 018°58'0 0.0
2014-Oct-21 04:33N 69°39' E 018°58'1 1.2
2014-Oct-21 03:33N 69°38' E 018°57'227 8.3
2014-Oct-20 00:08N 66°33' E 013°04'711.8
2014-Oct-19 23:32N 66°26' E 012°60'7511.9
2014-Oct-19 17:15N 65°16' E 011°57'1114.6
2014-Oct-19 16:31N 65°06' E 011°48'1313.8
2014-Oct-19 15:34N 64°56' E 011°27'7 6.9
2014-Oct-19 14:33N 64°52' E 011°14'0 0.0
2014-Oct-19 13:33N 64°52' E 011°14'7 7.0
2014-Oct-19 12:33N 64°46' E 011°03'7512.6
2014-Oct-19 06:33N 63°44' E 009°25'281 6.8
2014-Oct-17 13:27N 59°30' E 005°13'1313.6
2014-Oct-17 12:31N 59°18' E 005°20'1313.8
2014-Oct-17 11:34N 59°06' E 005°32'1111.5
2014-Oct-17 10:33N 58°58' E 005°48'7 6.8
2014-Oct-17 09:33N 58°51' E 005°45'0 0.0
2014-Oct-17 08:33N 58°51' E 005°45'0 0.0
2014-Oct-17 07:33N 58°51' E 005°45'0 0.0
2014-Oct-17 06:33N 58°51' E 005°45'0 0.0
2014-Oct-17 05:33N 58°51' E 005°45'0 0.0
2014-Oct-17 04:33N 58°51' E 005°45'0 0.1
2014-Oct-17 03:33N 58°51' E 005°45'1010.2
2014-Oct-17 02:34N 59°02' E 005°43'1010.4
2014-Oct-17 01:34N 58°53' E 005°32'33413.2
2014-Oct-16 00:18N 54°00' E 000°40'1114.3
2014-Oct-15 23:33N 53°50' E 000°32'1414.1
2014-Oct-15 22:33N 53°38' E 000°22'1110.9
2014-Oct-15 21:34N 53°35' E 000°04'5 5.2
2014-Oct-15 20:33N 53°35' W 000°04'0 0.0
2014-Oct-15 19:31N 53°35' W 000°04'0 0.0
2014-Oct-15 18:31N 53°35' W 000°04'0 0.0
2014-Oct-15 17:28N 53°35' W 000°04'0 0.0
2014-Oct-15 16:31N 53°35' W 000°04'0 0.0
2014-Oct-15 15:31N 53°35' W 000°04'0 0.0
2014-Oct-15 14:31N 53°35' W 000°04'0 0.0
2014-Oct-15 13:31N 53°35' W 000°04'0 0.0
2014-Oct-15 12:31N 53°35' W 000°04'0 0.0
2014-Oct-15 11:31N 53°35' W 000°04'0 0.0
2014-Oct-15 10:28N 53°35' W 000°04'0 0.0
2014-Oct-15 09:31N 53°35' W 000°04'0 0.0
2014-Oct-15 08:31N 53°35' W 000°04'0 0.0
2014-Oct-15 07:31N 53°35' W 000°04'0 0.0
2014-Oct-15 06:28N 53°35' W 000°04'0 0.0
2014-Oct-15 05:31N 53°35' W 000°04'0 0.0
2014-Oct-15 04:31N 53°35' W 000°04'0 0.0
2014-Oct-15 03:31N 53°35' W 000°04'0 0.0
2014-Oct-15 02:31N 53°35' W 000°04'0 0.0
2014-Oct-15 01:31N 53°35' W 000°04'0 0.0
2014-Oct-15 00:31N 53°35' W 000°04'0 0.0
2014-Oct-14 23:31N 53°35' W 000°04'0 0.0
2014-Oct-14 22:31N 53°35' W 000°04'0 0.0
2014-Oct-14 21:31N 53°35' W 000°04'0 0.0
2014-Oct-14 20:33N 53°35' W 000°04'2 2.3
2014-Oct-14 19:33N 53°35' W 000°01'1111.1
2014-Oct-14 18:33N 53°33' E 000°18'8 7.6
2014-Oct-14 17:33N 53°31' E 000°30'6 5.6
2014-Oct-14 16:33N 53°28' E 000°38'4013.0
2014-Oct-14 13:30N 53°10' E 001°37'1612.8
2014-Oct-14 12:16N 53°03' E 002°01'  

Dump ship's entire track history